E25HML-13 Weather Reports


time (UTC)temp
C
wind
direction
speed
KPH
gust
KPH
rain 1hr
cm
rain 24hr
cm
rain mn
cm
humidity
%
barometer
mb
20260509075348 33 0.0 0.0 0.00 0.00 0.00 69 1004.5
20260509074848 33 0.0 0.0 0.00 0.00 0.00 69 1004.6
20260509074348 33 0.0 0.0 0.00 0.00 0.00 69 1004.7
20260509073848 32 0.0 0.0 0.00 0.00 0.00 68 1004.9
20260509073348 32 0.0 0.0 0.00 0.00 0.00 68 1004.9
20260509072848 32 0.0 0.0 0.00 0.00 0.00 68 1004.9
20260509072348 32 0.0 0.0 0.00 0.00 0.00 68 1005.1
20260509071848 32 0.0 0.0 0.00 0.00 0.00 68 1005.3
20260509071348 32 0.0 0.0 0.00 0.00 0.00 68 1005.3
20260509070848 32 0.0 0.0 0.00 0.00 0.00 68 1005.5
20260509070348 32 0.0 0.0 0.00 0.00 0.00 68 1005.6
20260509065848 32 0.0 0.0 0.00 0.00 0.00 68 1005.7
20260509065348 32 0.0 0.0 0.00 0.00 0.00 68 1005.8
20260509064848 32 0.0 0.0 0.00 0.00 0.00 68 1005.9
20260509064348 32 0.0 0.0 0.00 0.00 0.00 68 1006.1
20260509063848 32 0.0 0.0 0.00 0.00 0.00 69 1006.1
20260509063348 32 0.0 0.0 0.00 0.00 0.00 69 1006.2
20260509062848 32 0.0 0.0 0.00 0.00 0.00 69 1006.4
20260509062348 32 0.0 0.0 0.00 0.00 0.00 70 1006.5
20260509061848 32 0.0 0.0 0.00 0.00 0.00 70 1006.6
20260509061348 32 0.0 0.0 0.00 0.00 0.00 69 1006.6
20260509060847 32 0.0 0.0 0.00 0.00 0.00 70 1006.8
20260509060347 32 0.0 0.0 0.00 0.00 0.00 70 1006.8
20260509055848 32 0.0 0.0 0.00 0.00 0.00 69 1006.9
20260509055348 32 0.0 0.0 0.00 0.00 0.00 70 1006.9
20260509054847 32 0.0 0.0 0.00 0.00 0.00 69 1007.1
20260509054348 32 0.0 0.0 0.00 0.00 0.00 69 1007.2
20260509053848 32 0.0 0.0 0.00 0.00 0.00 69 1007.3
20260509053347 32 0.0 0.0 0.00 0.00 0.00 69 1007.4
20260509052848 32 0.0 0.0 0.00 0.00 0.00 70 1007.5
20260509052348 32 0.0 0.0 0.00 0.00 0.00 70 1007.7
20260509051848 32 0.0 0.0 0.00 0.00 0.00 70 1007.8
20260509051347 32 0.0 0.0 0.00 0.00 0.00 70 1007.8
20260509050847 32 0.0 0.0 0.00 0.00 0.00 70 1007.9
20260509050348 32 0.0 0.0 0.00 0.00 0.00 71 1008.1
20260509045847 32 0.0 0.0 0.00 0.00 0.00 71 1008.1
20260509045347 32 0.0 0.0 0.00 0.00 0.00 71 1008.2
20260509044848 32 0.0 0.0 0.00 0.00 0.00 71 1008.3
20260509044347 32 0.0 0.0 0.00 0.00 0.00 71 1008.3
20260509043847 32 0.0 0.0 0.00 0.00 0.00 71 1008.4
20260509043348 32 0.0 0.0 0.00 0.00 0.00 71 1008.5
20260509042847 32 0.0 0.0 0.00 0.00 0.00 71 1008.5
20260509042347 32 0.0 0.0 0.00 0.00 0.00 71 1008.6
20260509041847 32 0.0 0.0 0.00 0.00 0.00 71 1008.7
20260509041347 32 0.0 0.0 0.00 0.00 0.00 71 1008.7
20260509040848 32 0.0 0.0 0.00 0.00 0.00 72 1008.8
20260509040348 32 0.0 0.0 0.00 0.00 0.00 72 1008.8
20260509035847 32 0.0 0.0 0.00 0.00 0.00 72 1009.0
20260509035347 32 0.0 0.0 0.00 0.00 0.00 72 1009.0
20260509034848 31 0.0 0.0 0.00 0.00 0.00 72 1009.1
20260509034347 31 0.0 0.0 0.00 0.00 0.00 72 1009.2
20260509033847 31 0.0 0.0 0.00 0.00 0.00 72 1009.4
20260509033347 31 0.0 0.0 0.00 0.00 0.00 73 1009.4
20260509032847 31 0.0 0.0 0.00 0.00 0.00 73 1009.5
20260509032347 31 0.0 0.0 0.00 0.00 0.00 73 1009.7
20260509031847 31 0.0 0.0 0.00 0.00 0.00 73 1009.8
20260509031347 31 0.0 0.0 0.00 0.00 0.00 73 1009.8
20260509030847 31 0.0 0.0 0.00 0.00 0.00 73 1009.9
20260509030347 31 0.0 0.0 0.00 0.00 0.00 74 1010.0
20260509025852 31 0.0 0.0 0.00 0.00 0.00 73 1010.2
20260509025347 31 0.0 0.0 0.00 0.00 0.00 73 1010.3
20260509024848 31 0.0 0.0 0.00 0.00 0.00 74 1010.3
20260509024347 31 0.0 0.0 0.00 0.00 0.00 73 1010.4
20260509023848 31 0.0 0.0 0.00 0.00 0.00 74 1010.2
20260509023347 31 0.0 0.0 0.00 0.00 0.00 74 1010.2
20260509022847 31 0.0 0.0 0.00 0.00 0.00 75 1010.3
20260509022347 31 0.0 0.0 0.00 0.00 0.00 74 1010.2
20260509021347 31 0.0 0.0 0.00 0.00 0.00 74 1010.1
20260509020847 31 0.0 0.0 0.00 0.00 0.00 73 1009.9
20260509020347 31 0.0 0.0 0.00 0.00 0.00 72 1010.0
20260509015847 31 0.0 0.0 0.00 0.00 0.00 73 1010.0
20260509015347 31 0.0 0.0 0.00 0.00 0.00 73 1010.0
20260509014347 31 0.0 0.0 0.00 0.00 0.00 73 1010.1
20260509013847 31 0.0 0.0 0.00 0.00 0.00 73 1010.0
20260509013347 31 0.0 0.0 0.00 0.00 0.00 73 1010.0
20260509012847 31 0.0 0.0 0.00 0.00 0.00 71 1009.9
20260509012347 31 0.0 0.0 0.00 0.00 0.00 74 1009.7
20260509011847 30 0.0 0.0 0.00 0.00 0.00 75 1009.6
20260509011347 31 0.0 0.0 0.00 0.00 0.00 73 1009.5
20260509010847 31 0.0 0.0 0.00 0.00 0.00 70 1009.4
20260509010347 31 0.0 0.0 0.00 0.00 0.00 68 1009.4
20260509005847 31 0.0 0.0 0.00 0.00 0.00 68 1009.3
20260509005347 32 0.0 0.0 0.00 0.00 0.00 68 1009.2
20260509004847 32 0.0 0.0 0.00 0.00 0.00 67 1009.2
20260509004347 32 0.0 0.0 0.00 0.00 0.00 67 1009.2
20260509003847 32 0.0 0.0 0.00 0.00 0.00 67 1009.1
20260509003347 32 0.0 0.0 0.00 0.00 0.00 67 1009.2
20260509002847 32 0.0 0.0 0.00 0.00 0.00 67 1009.2
20260509002347 32 0.0 0.0 0.00 0.00 0.00 67 1009.1
20260509001847 32 0.0 0.0 0.00 0.00 0.00 67 1009.2
20260509001347 32 0.0 0.0 0.00 0.00 0.00 67 1009.0
20260509000847 32 0.0 0.0 0.00 0.00 0.00 67 1008.9
20260509000348 32 0.0 0.0 0.00 0.00 0.00 67 1008.9
20260508235848 32 0.0 0.0 0.00 0.00 0.00 67 1008.8
20260508235347 32 0.0 0.0 0.00 0.00 0.00 67 1008.8
20260508234847 32 0.0 0.0 0.00 0.00 0.00 67 1008.7
20260508234347 32 0.0 0.0 0.00 0.00 0.00 66 1008.8
20260508233847 32 0.0 0.0 0.00 0.00 0.00 66 1008.7
20260508233347 32 0.0 0.0 0.00 0.00 0.00 66 1008.6
20260508232847 32 0.0 0.0 0.00 0.00 0.00 67 1008.4
20260508232347 32 0.0 0.0 0.00 0.00 0.00 67 1008.3
20260508231847 32 0.0 0.0 0.00 0.00 0.00 67 1008.2
20260508231347 32 0.0 0.0 0.00 0.00 0.00 67 1008.1
20260508230847 32 0.0 0.0 0.00 0.00 0.00 67 1008.0
20260508230346 32 0.0 0.0 0.00 0.00 0.00 66 1007.9
20260508225847 32 0.0 0.0 0.00 0.00 0.00 66 1007.9
20260508225347 32 0.0 0.0 0.00 0.00 0.00 66 1007.8
20260508224847 32 0.0 0.0 0.00 0.00 0.00 66 1007.7
20260508224346 32 0.0 0.0 0.00 0.00 0.00 66 1007.6
20260508223847 32 0.0 0.0 0.00 0.00 0.00 66 1007.7
20260508223347 32 0.0 0.0 0.00 0.00 0.00 65 1007.7
20260508222847 32 0.0 0.0 0.00 0.00 0.00 66 1007.7
20260508222347 32 0.0 0.0 0.00 0.00 0.00 66 1007.6
20260508221847 32 0.0 0.0 0.00 0.00 0.00 66 1007.6
20260508221347 32 0.0 0.0 0.00 0.00 0.00 65 1007.5
20260508220847 32 0.0 0.0 0.00 0.00 0.00 65 1007.4
20260508220346 32 0.0 0.0 0.00 0.00 0.00 65 1007.4
20260508215846 32 0.0 0.0 0.00 0.00 0.00 66 1007.3
20260508215346 32 0.0 0.0 0.00 0.00 0.00 65 1007.3
20260508214846 32 0.0 0.0 0.00 0.00 0.00 65 1007.2
20260508214347 32 0.0 0.0 0.00 0.00 0.00 65 1007.0
20260508213847 32 0.0 0.0 0.00 0.00 0.00 65 1007.0
20260508213346 33 0.0 0.0 0.00 0.00 0.00 64 1007.0
20260508212847 33 0.0 0.0 0.00 0.00 0.00 64 1006.8
20260508212346 33 0.0 0.0 0.00 0.00 0.00 64 1006.7
20260508211847 32 0.0 0.0 0.00 0.00 0.00 64 1006.6
20260508211346 32 0.0 0.0 0.00 0.00 0.00 65 1006.5
20260508210847 32 0.0 0.0 0.00 0.00 0.00 65 1006.5
20260508210347 32 0.0 0.0 0.00 0.00 0.00 65 1006.4
20260508205846 32 0.0 0.0 0.00 0.00 0.00 64 1006.2
20260508205346 32 0.0 0.0 0.00 0.00 0.00 65 1006.1
20260508204846 33 0.0 0.0 0.00 0.00 0.00 64 1006.0
20260508204346 33 0.0 0.0 0.00 0.00 0.00 63 1005.9
20260508203846 33 0.0 0.0 0.00 0.00 0.00 63 1006.0
20260508203346 33 0.0 0.0 0.00 0.00 0.00 64 1006.0
20260508202846 32 0.0 0.0 0.00 0.00 0.00 65 1005.9
20260508202346 32 0.0 0.0 0.00 0.00 0.00 65 1005.9
20260508201846 32 0.0 0.0 0.00 0.00 0.00 65 1005.9
20260508201346 33 0.0 0.0 0.00 0.00 0.00 64 1005.9
20260508200846 32 0.0 0.0 0.00 0.00 0.00 65 1006.2
20260508200346 33 0.0 0.0 0.00 0.00 0.00 64 1006.0
20260508195846 33 0.0 0.0 0.00 0.00 0.00 63 1006.1
20260508195346 33 0.0 0.0 0.00 0.00 0.00 64 1006.1
20260508194846 33 0.0 0.0 0.00 0.00 0.00 64 1006.2
20260508194346 33 0.0 0.0 0.00 0.00 0.00 63 1006.2
20260508193846 33 0.0 0.0 0.00 0.00 0.00 64 1006.2
20260508193346 33 0.0 0.0 0.00 0.00 0.00 64 1006.3
20260508192846 33 0.0 0.0 0.00 0.00 0.00 64 1006.3
20260508192346 33 0.0 0.0 0.00 0.00 0.00 63 1006.3
20260508191846 33 0.0 0.0 0.00 0.00 0.00 63 1006.4
20260508191346 33 0.0 0.0 0.00 0.00 0.00 62 1006.4
20260508190846 33 0.0 0.0 0.00 0.00 0.00 63 1006.4
20260508190345 33 0.0 0.0 0.00 0.00 0.00 63 1006.6
20260508185846 33 0.0 0.0 0.00 0.00 0.00 63 1006.6
20260508185346 33 0.0 0.0 0.00 0.00 0.00 62 1006.7
20260508184846 33 0.0 0.0 0.00 0.00 0.00 63 1006.7
20260508184346 33 0.0 0.0 0.00 0.00 0.00 62 1006.8
20260508183845 33 0.0 0.0 0.00 0.00 0.00 62 1006.8
20260508183345 34 0.0 0.0 0.00 0.00 0.00 61 1006.9
20260508182846 33 0.0 0.0 0.00 0.00 0.00 62 1007.1
20260508182346 33 0.0 0.0 0.00 0.00 0.00 62 1007.2
20260508181846 33 0.0 0.0 0.00 0.00 0.00 62 1007.2
20260508181346 33 0.0 0.0 0.00 0.00 0.00 62 1007.3
20260508180846 34 0.0 0.0 0.00 0.00 0.00 61 1007.2
20260508180346 34 0.0 0.0 0.00 0.00 0.00 61 1007.4
20260508175846 34 0.0 0.0 0.00 0.00 0.00 61 1007.5
20260508175346 34 0.0 0.0 0.00 0.00 0.00 61 1007.5
20260508174846 34 0.0 0.0 0.00 0.00 0.00 61 1007.5
20260508174346 33 0.0 0.0 0.00 0.00 0.00 62 1007.6
20260508173846 33 0.0 0.0 0.00 0.00 0.00 63 1007.7
20260508173346 33 0.0 0.0 0.00 0.00 0.00 63 1007.7
20260508172846 33 0.0 0.0 0.00 0.00 0.00 63 1007.8
20260508172346 33 0.0 0.0 0.00 0.00 0.00 63 1007.8
20260508171846 34 0.0 0.0 0.00 0.00 0.00 63 1007.8
20260508171346 33 0.0 0.0 0.00 0.00 0.00 63 1007.8
20260508170846 34 0.0 0.0 0.00 0.00 0.00 63 1007.9
20260508170346 33 0.0 0.0 0.00 0.00 0.00 65 1008.0
20260508165846 32 0.0 0.0 0.00 0.00 0.00 68 1008.2
20260508165346 32 0.0 0.0 0.00 0.00 0.00 69 1008.2
20260508164846 32 0.0 0.0 0.00 0.00 0.00 69 1008.3
20260508164346 32 0.0 0.0 0.00 0.00 0.00 70 1008.3
20260508163846 32 0.0 0.0 0.00 0.00 0.00 70 1008.4
20260508163345 32 0.0 0.0 0.00 0.00 0.00 71 1008.5
20260508162846 32 0.0 0.0 0.00 0.00 0.00 71 1008.5
20260508162346 32 0.0 0.0 0.00 0.00 0.00 71 1008.6
20260508161846 31 0.0 0.0 0.00 0.00 0.00 72 1008.5
20260508161346 32 0.0 0.0 0.00 0.00 0.00 71 1008.6
20260508160845 31 0.0 0.0 0.00 0.00 0.00 71 1008.6
20260508160346 32 0.0 0.0 0.00 0.00 0.00 71 1008.8
20260508155846 32 0.0 0.0 0.00 0.00 0.00 71 1008.7
20260508155346 32 0.0 0.0 0.00 0.00 0.00 71 1008.8
20260508154845 32 0.0 0.0 0.00 0.00 0.00 70 1008.7
20260508154345 32 0.0 0.0 0.00 0.00 0.00 70 1008.8
20260508153846 32 0.0 0.0 0.00 0.00 0.00 69 1008.8
20260508153345 31 0.0 0.0 0.00 0.00 0.00 70 1008.8
20260508152846 32 0.0 0.0 0.00 0.00 0.00 70 1008.8
20260508152345 32 0.0 0.0 0.00 0.00 0.00 71 1008.7
20260508151849 32 0.0 0.0 0.00 0.00 0.00 69 1008.8
20260508151345 32 0.0 0.0 0.00 0.00 0.00 69 1008.8
20260508150846 32 0.0 0.0 0.00 0.00 0.00 69 1008.7
20260508150345 32 0.0 0.0 0.00 0.00 0.00 69 1008.8
20260508145845 32 0.0 0.0 0.00 0.00 0.00 69 1008.7
20260508145346 32 0.0 0.0 0.00 0.00 0.00 69 1008.7
20260508144846 32 0.0 0.0 0.00 0.00 0.00 69 1008.6
20260508144345 32 0.0 0.0 0.00 0.00 0.00 68 1008.4
20260508143845 32 0.0 0.0 0.00 0.00 0.00 68 1008.3
20260508143346 32 0.0 0.0 0.00 0.00 0.00 68 1008.3
20260508142845 32 0.0 0.0 0.00 0.00 0.00 68 1008.2
20260508142345 32 0.0 0.0 0.00 0.00 0.00 68 1008.2
20260508141846 32 0.0 0.0 0.00 0.00 0.00 68 1008.2
20260508141345 32 0.0 0.0 0.00 0.00 0.00 67 1008.0
20260508140845 33 0.0 0.0 0.00 0.00 0.00 66 1007.9
20260508140346 33 0.0 0.0 0.00 0.00 0.00 66 1007.8
20260508135846 32 0.0 0.0 0.00 0.00 0.00 67 1007.8
20260508135345 32 0.0 0.0 0.00 0.00 0.00 67 1007.7
20260508134845 33 0.0 0.0 0.00 0.00 0.00 66 1007.6
20260508134346 32 0.0 0.0 0.00 0.00 0.00 66 1007.7
20260508133845 32 0.0 0.0 0.00 0.00 0.00 66 1007.4
20260508133345 32 0.0 0.0 0.00 0.00 0.00 67 1007.3
20260508132845 32 0.0 0.0 0.00 0.00 0.00 66 1007.1
20260508132345 32 0.0 0.0 0.00 0.00 0.00 66 1007.0
20260508131846 33 0.0 0.0 0.00 0.00 0.00 66 1006.9
20260508131346 32 0.0 0.0 0.00 0.00 0.00 66 1006.8
20260508130845 32 0.0 0.0 0.00 0.00 0.00 66 1006.7
20260508130345 32 0.0 0.0 0.00 0.00 0.00 66 1006.7
20260508125845 33 0.0 0.0 0.00 0.00 0.00 65 1006.5
20260508125345 32 0.0 0.0 0.00 0.00 0.00 65 1006.4
20260508124845 33 0.0 0.0 0.00 0.00 0.00 65 1006.3
20260508124345 32 0.0 0.0 0.00 0.00 0.00 66 1006.2
20260508123345 33 0.0 0.0 0.00 0.00 0.00 65 1006.0
20260508122845 32 0.0 0.0 0.00 0.00 0.00 65 1005.9
20260508122345 32 0.0 0.0 0.00 0.00 0.00 66 1005.9
20260508121845 32 0.0 0.0 0.00 0.00 0.00 65 1005.9
20260508121345 33 0.0 0.0 0.00 0.00 0.00 63 1005.6
20260508120845 33 0.0 0.0 0.00 0.00 0.00 63 1005.5
20260508120345 33 0.0 0.0 0.00 0.00 0.00 63 1005.4
20260508115846 33 0.0 0.0 0.00 0.00 0.00 63 1005.3
20260508114845 32 0.0 0.0 0.00 0.00 0.00 64 1005.0
20260508114345 33 0.0 0.0 0.00 0.00 0.00 63 1004.9
20260508113845 33 0.0 0.0 0.00 0.00 0.00 63 1004.9
20260508113345 33 0.0 0.0 0.00 0.00 0.00 63 1004.8
20260508112845 33 0.0 0.0 0.00 0.00 0.00 62 1004.7
20260508112345 33 0.0 0.0 0.00 0.00 0.00 62 1004.5
20260508111845 33 0.0 0.0 0.00 0.00 0.00 62 1004.5
20260508111345 33 0.0 0.0 0.00 0.00 0.00 62 1004.4
20260508110844 33 0.0 0.0 0.00 0.00 0.00 62 1004.3
20260508110345 33 0.0 0.0 0.00 0.00 0.00 62 1004.3
20260508105846 33 0.0 0.0 0.00 0.00 0.00 62 1004.2
20260508105345 33 0.0 0.0 0.00 0.00 0.00 62 1004.2
20260508104845 33 0.0 0.0 0.00 0.00 0.00 62 1004.2
20260508104345 33 0.0 0.0 0.00 0.00 0.00 62 1004.2
20260508103846 33 0.0 0.0 0.00 0.00 0.00 63 1004.1
20260508103345 33 0.0 0.0 0.00 0.00 0.00 62 1003.9
20260508102845 33 0.0 0.0 0.00 0.00 0.00 63 1003.8
20260508102345 33 0.0 0.0 0.00 0.00 0.00 63 1003.8
20260508101845 33 0.0 0.0 0.00 0.00 0.00 62 1003.7
20260508101345 33 0.0 0.0 0.00 0.00 0.00 62 1003.7
20260508100845 33 0.0 0.0 0.00 0.00 0.00 62 1003.6
20260508100345 33 0.0 0.0 0.00 0.00 0.00 62 1003.6
20260508095845 33 0.0 0.0 0.00 0.00 0.00 63 1003.6
20260508095345 33 0.0 0.0 0.00 0.00 0.00 62 1003.7
20260508094846 33 0.0 0.0 0.00 0.00 0.00 61 1003.7
20260508094344 33 0.0 0.0 0.00 0.00 0.00 61 1003.9
20260508093845 33 0.0 0.0 0.00 0.00 0.00 60 1003.6
20260508093345 33 0.0 0.0 0.00 0.00 0.00 59 1003.4
20260508092845 34 0.0 0.0 0.00 0.00 0.00 59 1003.7
20260508092345 34 0.0 0.0 0.00 0.00 0.00 58 1004.0
20260508091845 34 0.0 0.0 0.00 0.00 0.00 59 1004.2
20260508091346 34 0.0 0.0 0.00 0.00 0.00 59 1004.3
20260508090845 34 0.0 0.0 0.00 0.00 0.00 58 1004.2
20260508090345 35 0.0 0.0 0.00 0.00 0.00 57 1004.0
20260508085844 35 0.0 0.0 0.00 0.00 0.00 57 1003.8
20260508085345 35 0.0 0.0 0.00 0.00 0.00 58 1003.6
20260508084844 35 0.0 0.0 0.00 0.00 0.00 57 1003.7
20260508084344 35 0.0 0.0 0.00 0.00 0.00 57 1003.8
20260508083844 35 0.0 0.0 0.00 0.00 0.00 56 1003.7
20260508083345 35 0.0 0.0 0.00 0.00 0.00 54 1003.5
20260508082845 35 0.0 0.0 0.00 0.00 0.00 55 1003.4
20260508082345 35 0.0 0.0 0.00 0.00 0.00 54 1003.5
20260508081844 35 0.0 0.0 0.00 0.00 0.00 55 1003.4
20260508081344 35 0.0 0.0 0.00 0.00 0.00 54 1003.4
20260508080845 35 0.0 0.0 0.00 0.00 0.00 54 1003.2
20260508080344 35 0.0 0.0 0.00 0.00 0.00 53 1003.2
20260508075844 35 0.0 0.0 0.00 0.00 0.00 52 1003.3